When you browse on this site, cookies collect data to enhance your experience and personalize the content and advertising you see.
Visit our Privacy Policy to learn more. By continuing to use the site, you agree to this use of cookies and data.
  • en France
  • Liste des pays
  • À 7 jours
  • Température de l'eau
  • Carte satellitaire
  • Carte météo
  • Widgets météo
  • user-avatar
    Se connecter

    Météo par heure à Briseñas

    Ce jour, 19 Juillet, Vendredi

    Heure Température Précipitation Vent Pression Humidité
    00:00 +18°C° 0.5 mm 1 m/s 636 mmHg 95%
    01:00 +18°C° 0.5 mm 1 m/s 635 mmHg 95%
    02:00 +19°C° 0.5 mm 1 m/s 635 mmHg 94%
    03:00 +18°C° 0.1 mm 1 m/s 635 mmHg 94%
    04:00 +16°C° 0.1 mm 0 m/s 635 mmHg 95%
    05:00 +16°C° 0.1 mm 0 m/s 635 mmHg 95%
    06:00 +17°C° 0.1 mm 0 m/s 636 mmHg 90%
    07:00 +21°C° 0.1 mm 1 m/s 637 mmHg 85%
    08:00 +22°C° 0.1 mm 1 m/s 638 mmHg 80%
    09:00 +25°C° 0.4 mm 1 m/s 638 mmHg 72%
    10:00 +25°C° 0.4 mm 0 m/s 638 mmHg 64%
    11:00 +27°C° 0.4 mm 0 m/s 639 mmHg 56%
    12:00 +29°C° 0.2 mm 1 m/s 638 mmHg 53%
    13:00 +30°C° 0.2 mm 1 m/s 637 mmHg 49%
    14:00 +30°C° 0.2 mm 1 m/s 637 mmHg 46%
    15:00 +28°C° 0.3 mm 2 m/s 636 mmHg 52%
    16:00 +27°C° 0.3 mm 2 m/s 636 mmHg 59%
    17:00 +25°C° 0.3 mm 2 m/s 635 mmHg 65%
    18:00 +23°C° 0.9 mm 2 m/s 635 mmHg 75%
    19:00 +20°C° 0.9 mm 2 m/s 635 mmHg 84%
    20:00 +18°C° 0.9 mm 2 m/s 635 mmHg 93%
    21:00 +18°C° 0.3 mm 2 m/s 636 mmHg 94%
    22:00 +18°C° 0.3 mm 2 m/s 636 mmHg 94%
    23:00 +17°C° 0.3 mm 2 m/s 636 mmHg 95%

    Demain, 20 Juillet, Samedi

    Heure Température Précipitation Vent Pression Humidité
    00:00 +18°C° 0.4 mm 1 m/s 636 mmHg 95%
    01:00 +18°C° 0.4 mm 1 m/s 635 mmHg 95%
    02:00 +18°C° 0.4 mm 1 m/s 635 mmHg 95%
    03:00 +18°C° 0.2 mm 1 m/s 635 mmHg 95%
    04:00 +18°C° 0.2 mm 1 m/s 635 mmHg 95%
    05:00 +16°C° 0.2 mm 0 m/s 635 mmHg 95%
    06:00 +16°C° 0.2 mm 0 m/s 635 mmHg 95%
    07:00 +17°C° 0.2 mm 0 m/s 636 mmHg 94%
    08:00 +17°C° 0.2 mm 0 m/s 636 mmHg 94%
    09:00 +19°C° 0 mm 0 m/s 637 mmHg 83%
    10:00 +24°C° 0 mm 1 m/s 637 mmHg 72%
    11:00 +26°C° 0 mm 1 m/s 638 mmHg 62%
    12:00 +26°C° 0.5 mm 1 m/s 637 mmHg 63%
    13:00 +26°C° 0.5 mm 1 m/s 636 mmHg 65%
    14:00 +26°C° 0.5 mm 1 m/s 636 mmHg 66%
    15:00 +25°C° 1.6 mm 1 m/s 635 mmHg 74%
    16:00 +23°C° 1.6 mm 1 m/s 635 mmHg 81%
    17:00 +22°C° 1.6 mm 1 m/s 634 mmHg 89%
    18:00 +21°C° 1.6 mm 1 m/s 634 mmHg 91%
    19:00 +20°C° 1.6 mm 1 m/s 635 mmHg 93%
    20:00 +19°C° 1.6 mm 1 m/s 635 mmHg 96%
    21:00 +19°C° 1.2 mm 1 m/s 635 mmHg 96%
    22:00 +19°C° 1.2 mm 1 m/s 635 mmHg 96%
    23:00 +19°C° 1.2 mm 1 m/s 636 mmHg 97%

    Après-demain, 21 Juillet, Dimanche

    Heure Température Précipitation Vent Pression Humidité
    00:00 +19°C° 1 mm 1 m/s 635 mmHg 96%
    01:00 +19°C° 1 mm 1 m/s 635 mmHg 96%
    02:00 +16°C° 1 mm 0 m/s 635 mmHg 96%
    03:00 +18°C° 0.3 mm 1 m/s 635 mmHg 96%
    04:00 +18°C° 0.3 mm 1 m/s 635 mmHg 96%
    05:00 +18°C° 0.3 mm 1 m/s 635 mmHg 96%
    06:00 +19°C° 0.2 mm 1 m/s 636 mmHg 93%
    07:00 +20°C° 0.2 mm 1 m/s 636 mmHg 90%
    08:00 +21°C° 0.2 mm 1 m/s 637 mmHg 86%
    09:00 +22°C° 0.7 mm 1 m/s 637 mmHg 81%
    10:00 +24°C° 0.7 mm 1 m/s 638 mmHg 77%
    11:00 +25°C° 0.7 mm 1 m/s 638 mmHg 72%
    12:00 +25°C° 1.1 mm 1 m/s 638 mmHg 72%
    13:00 +26°C° 1.1 mm 1 m/s 638 mmHg 72%
    14:00 +24°C° 1.1 mm 0 m/s 637 mmHg 72%
    15:00 +23°C° 1.1 mm 0 m/s 637 mmHg 75%
    16:00 +22°C° 1.1 mm 0 m/s 637 mmHg 79%
    17:00 +21°C° 1.1 mm 0 m/s 636 mmHg 82%
    18:00 +22°C° 0.5 mm 1 m/s 636 mmHg 85%
    19:00 +21°C° 0.5 mm 1 m/s 637 mmHg 88%
    20:00 +19°C° 0.5 mm 1 m/s 637 mmHg 90%
    21:00 +19°C° 0.4 mm 1 m/s 637 mmHg 92%
    22:00 +19°C° 0.4 mm 1 m/s 637 mmHg 93%
    23:00 +19°C° 0.4 mm 1 m/s 637 mmHg 94%

    22 Juillet, Lundi

    Heure Température Précipitation Vent Pression Humidité
    00:00 +18°C° 0 mm 1 m/s 636 mmHg 94%
    01:00 +18°C° 0 mm 1 m/s 636 mmHg 95%
    02:00 +16°C° 0 mm 0 m/s 636 mmHg 95%
    03:00 +16°C° 0.1 mm 0 m/s 636 mmHg 95%
    04:00 +16°C° 0.1 mm 0 m/s 635 mmHg 94%
    05:00 +16°C° 0.1 mm 0 m/s 635 mmHg 94%
    06:00 +17°C° 0 mm 0 m/s 636 mmHg 89%
    07:00 +19°C° 0 mm 0 m/s 637 mmHg 84%
    08:00 +20°C° 0 mm 0 m/s 638 mmHg 80%
    09:00 +23°C° 0.3 mm 0 m/s 638 mmHg 70%
    10:00 +26°C° 0.3 mm 0 m/s 639 mmHg 61%
    11:00 +29°C° 0.3 mm 0 m/s 640 mmHg 51%
    12:00 +30°C° 0.4 mm 1 m/s 639 mmHg 52%
    13:00 +29°C° 0.4 mm 1 m/s 638 mmHg 53%
    14:00 +28°C° 0.4 mm 2 m/s 637 mmHg 53%
    15:00 +27°C° 0.6 mm 2 m/s 636 mmHg 59%
    16:00 +27°C° 0.6 mm 1 m/s 636 mmHg 65%
    17:00 +26°C° 0.6 mm 1 m/s 636 mmHg 71%
    18:00 +24°C° 1 mm 1 m/s 636 mmHg 78%
    19:00 +21°C° 1 mm 2 m/s 636 mmHg 84%
    20:00 +19°C° 1 mm 2 m/s 636 mmHg 91%
    21:00 +19°C° 0.7 mm 2 m/s 636 mmHg 92%
    22:00 +19°C° 0.7 mm 1 m/s 636 mmHg 93%
    23:00 +19°C° 0.7 mm 1 m/s 636 mmHg 93%

    23 Juillet, Mardi

    Heure Température Précipitation Vent Pression Humidité
    00:00 +19°C° 1.1 mm 1 m/s 636 mmHg 94%
    01:00 +19°C° 1.1 mm 1 m/s 636 mmHg 94%
    02:00 +19°C° 1.1 mm 1 m/s 636 mmHg 95%
    03:00 +19°C° 1.1 mm 1 m/s 636 mmHg 96%
    04:00 +19°C° 1.1 mm 1 m/s 636 mmHg 96%
    05:00 +19°C° 1.1 mm 1 m/s 636 mmHg 97%
    06:00 +19°C° 1.1 mm 1 m/s 636 mmHg 95%
    07:00 +20°C° 1.1 mm 1 m/s 637 mmHg 94%
    08:00 +18°C° 1.1 mm 0 m/s 637 mmHg 93%
    09:00 +20°C° 1 mm 0 m/s 637 mmHg 88%
    10:00 +22°C° 1 mm 0 m/s 637 mmHg 84%
    11:00 +23°C° 1 mm 0 m/s 637 mmHg 80%
    12:00 +24°C° 2.5 mm 0 m/s 637 mmHg 78%
    13:00 +24°C° 2.5 mm 0 m/s 636 mmHg 76%
    14:00 +24°C° 2.5 mm 0 m/s 636 mmHg 75%
    15:00 +23°C° 1.5 mm 0 m/s 635 mmHg 77%
    16:00 +24°C° 1.5 mm 1 m/s 635 mmHg 80%
    17:00 +24°C° 1.5 mm 1 m/s 635 mmHg 83%
    18:00 +22°C° 0.2 mm 1 m/s 635 mmHg 86%
    19:00 +21°C° 0.2 mm 1 m/s 635 mmHg 89%
    20:00 +20°C° 0.2 mm 1 m/s 636 mmHg 92%
    21:00 +19°C° 0.1 mm 1 m/s 636 mmHg 92%
    22:00 +19°C° 0.1 mm 1 m/s 636 mmHg 92%
    23:00 +18°C° 0.1 mm 1 m/s 636 mmHg 93%

    24 Juillet, Mercredi

    Heure Température Précipitation Vent Pression Humidité
    00:00 +18°C° 0.1 mm 1 m/s 636 mmHg 93%
    01:00 +18°C° 0.1 mm 1 m/s 635 mmHg 94%
    02:00 +16°C° 0.1 mm 1 m/s 635 mmHg 94%
    03:00 +16°C° 0 mm 1 m/s 635 mmHg 94%
    04:00 +16°C° 0 mm 1 m/s 635 mmHg 95%
    05:00 +16°C° 0 mm 1 m/s 635 mmHg 95%
    06:00 +18°C° 0 mm 1 m/s 636 mmHg 90%
    07:00 +20°C° 0 mm 1 m/s 636 mmHg 85%
    08:00 +22°C° 0 mm 1 m/s 637 mmHg 81%
    09:00 +24°C° 0.1 mm 1 m/s 638 mmHg 72%
    10:00 +27°C° 0.1 mm 1 m/s 638 mmHg 62%
    11:00 +27°C° 0.1 mm 0 m/s 638 mmHg 53%
    12:00 +29°C° 0.7 mm 1 m/s 638 mmHg 56%
    13:00 +28°C° 0.7 mm 1 m/s 637 mmHg 58%
    14:00 +28°C° 0.7 mm 1 m/s 636 mmHg 60%
    15:00 +27°C° 0.8 mm 1 m/s 636 mmHg 64%
    16:00 +26°C° 0.8 mm 1 m/s 635 mmHg 68%
    17:00 +25°C° 0.8 mm 1 m/s 635 mmHg 71%
    18:00 +23°C° 0.4 mm 1 m/s 635 mmHg 77%
    19:00 +21°C° 0.4 mm 1 m/s 635 mmHg 83%
    20:00 +20°C° 0.4 mm 1 m/s 635 mmHg 89%
    21:00 +19°C° 1.7 mm 1 m/s 635 mmHg 91%
    22:00 +19°C° 1.7 mm 1 m/s 635 mmHg 93%
    23:00 +18°C° 1.7 mm 1 m/s 635 mmHg 95%
    Voir plus